WJA506 CYYC-CYYZ

Flight info

Callsign WJA506
Flight time 3h 15m
Altitude 35000
Route LOMLO Q961 DAPOP DCT UDBOX DCT YQT DCT OTNIK BOXUM7
Aircraft B738/M-SDE2E3FGHIRWXY/LB1

Departure

Time 2026-05-04 17:21
Airport Calgary International Airport (CYYC)

Arrival

Time 2026-05-04 20:37
Airport Toronto Pearson International Airport (CYYZ)
Time Latitude Longitude Altitude Speed Heading
2026-05-04 17:00 51.12957 -114.01112 3558 ft 0 kts 315°
2026-05-04 17:08 51.12941 -114.01087 3554 ft 2 kts 315°
2026-05-04 17:08 51.12929 -114.01069 3554 ft 2 kts 311°
2026-05-04 17:09 51.12920 -114.01047 3555 ft 2 kts 283°
2026-05-04 17:09 51.12920 -114.01024 3558 ft 1 kts 238°
2026-05-04 17:09 51.12924 -114.01015 3553 ft 0 kts 230°
2026-05-04 17:12 51.12923 -114.01016 3553 ft 1 kts 230°
2026-05-04 17:12 51.12891 -114.01049 3556 ft 5 kts 210°
2026-05-04 17:13 51.12776 -114.01005 3558 ft 9 kts 125°
2026-05-04 17:14 51.12640 -114.00794 3557 ft 12 kts 168°
2026-05-04 17:14 51.12615 -114.00673 3558 ft 13 kts 91°
2026-05-04 17:14 51.12614 -114.00352 3558 ft 15 kts 90°
2026-05-04 17:15 51.12613 -114.00183 3558 ft 15 kts 94°
2026-05-04 17:15 51.12613 -113.99866 3558 ft 14 kts 89°
2026-05-04 17:16 51.12613 -113.99561 3559 ft 13 kts 90°
2026-05-04 17:16 51.12372 -113.99446 3556 ft 15 kts 180°
2026-05-04 17:17 51.12298 -113.99446 3556 ft 17 kts 180°
2026-05-04 17:17 51.11851 -113.99444 3557 ft 22 kts 180°
2026-05-04 17:18 51.11751 -113.99446 3556 ft 21 kts 179°
2026-05-04 17:18 51.11457 -113.99447 3555 ft 22 kts 180°
2026-05-04 17:19 51.11157 -113.99447 3559 ft 21 kts 180°
2026-05-04 17:19 51.11035 -113.99253 3560 ft 10 kts 91°
2026-05-04 17:20 51.11040 -113.99041 3563 ft 9 kts 60°
2026-05-04 17:20 51.11166 -113.99039 3561 ft 15 kts 360°
2026-05-04 17:20 51.11502 -113.99039 3560 ft 81 kts 360°
2026-05-04 17:21 51.13356 -113.99042 3692 ft 172 kts 359°
2026-05-04 17:21 51.15781 -113.99143 5284 ft 180 kts 357°
2026-05-04 17:22 51.17083 -113.99198 5786 ft 193 kts 357°
2026-05-04 17:22 51.18506 -113.99288 5961 ft 215 kts 359°
2026-05-04 17:23 51.21118 -113.93431 7259 ft 265 kts 94°
2026-05-04 17:23 51.20629 -113.90462 7611 ft 288 kts 108°
2026-05-04 17:23 51.18993 -113.84409 8997 ft 303 kts 111°
2026-05-04 17:24 51.18143 -113.81336 9748 ft 308 kts 111°
2026-05-04 17:24 51.15446 -113.71181 10811 ft 364 kts 110°
2026-05-04 17:25 51.14461 -113.67392 11237 ft 375 kts 110°
2026-05-04 17:25 51.12443 -113.59625 12635 ft 382 kts 109°
2026-05-04 17:26 51.10403 -113.51760 13964 ft 391 kts 109°
2026-05-04 17:26 51.07301 -113.39549 15660 ft 402 kts 103°
2026-05-04 17:27 51.06471 -113.30779 16789 ft 403 kts 89°
2026-05-04 17:27 51.05999 -113.21756 17862 ft 414 kts 90°
2026-05-04 17:28 51.05386 -113.12596 18865 ft 423 kts 91°
2026-05-04 17:29 51.04364 -112.98485 20328 ft 432 kts 91°
2026-05-04 17:29 51.03321 -112.84099 21701 ft 443 kts 91°
2026-05-04 17:30 51.02242 -112.69347 22996 ft 453 kts 90°
2026-05-04 17:31 51.01499 -112.59327 23813 ft 460 kts 90°
2026-05-04 17:31 51.00350 -112.44110 24937 ft 465 kts 90°
2026-05-04 17:32 50.99568 -112.33891 25648 ft 470 kts 90°
2026-05-04 17:33 50.98359 -112.18318 26645 ft 476 kts 89°
2026-05-04 17:33 50.97954 -112.13151 26970 ft 478 kts 89°
2026-05-04 17:34 50.96695 -111.97315 27888 ft 485 kts 89°
2026-05-04 17:34 50.96267 -111.91992 28190 ft 487 kts 89°
2026-05-04 17:35 50.94964 -111.75965 29031 ft 493 kts 89°
2026-05-04 17:35 50.94068 -111.65121 29563 ft 497 kts 89°
2026-05-04 17:35 50.93615 -111.59672 29810 ft 499 kts 89°
2026-05-04 17:36 50.93158 -111.54200 30108 ft 500 kts 89°
2026-05-04 17:36 50.92698 -111.48748 30449 ft 498 kts 89°
2026-05-04 17:36 50.92376 -111.43377 30775 ft 492 kts 84°
2026-05-04 17:36 50.92188 -111.37968 31083 ft 489 kts 83°
2026-05-04 17:37 50.92051 -111.32583 31371 ft 488 kts 83°
2026-05-04 17:37 50.91925 -111.27214 31683 ft 487 kts 83°
2026-05-04 17:37 50.91792 -111.21830 31980 ft 487 kts 83°
2026-05-04 17:37 50.91646 -111.16463 32271 ft 486 kts 83°
2026-05-04 17:38 50.91486 -111.11107 32549 ft 486 kts 83°
2026-05-04 17:38 50.91318 -111.05755 32829 ft 486 kts 83°
2026-05-04 17:38 50.91145 -111.00475 33106 ft 486 kts 84°
2026-05-04 17:38 50.90966 -110.95131 33405 ft 484 kts 84°
2026-05-04 17:39 50.90601 -110.84447 33964 ft 483 kts 84°
2026-05-04 17:39 50.90416 -110.79119 34179 ft 483 kts 84°
2026-05-04 17:39 50.90233 -110.73860 34358 ft 484 kts 84°
2026-05-04 17:40 50.90044 -110.68532 34535 ft 484 kts 84°
2026-05-04 17:40 50.89853 -110.63190 34747 ft 484 kts 85°
2026-05-04 17:40 50.89659 -110.57867 34936 ft 484 kts 85°
2026-05-04 17:40 50.89463 -110.52530 35090 ft 484 kts 85°
2026-05-04 17:41 50.89065 -110.41892 35108 ft 487 kts 85°
2026-05-04 17:41 50.88653 -110.31211 35089 ft 484 kts 85°
2026-05-04 17:42 50.88236 -110.20639 35105 ft 481 kts 85°
2026-05-04 17:42 50.87813 -110.10066 35097 ft 480 kts 86°
2026-05-04 17:43 50.87382 -109.99563 35103 ft 479 kts 86°
2026-05-04 17:43 50.86923 -109.88999 35101 ft 480 kts 86°
2026-05-04 17:44 50.86447 -109.78462 35100 ft 482 kts 86°
2026-05-04 17:44 50.85960 -109.67869 35096 ft 484 kts 87°
2026-05-04 17:45 50.85462 -109.57217 35087 ft 485 kts 87°
2026-05-04 17:45 50.84954 -109.46537 35083 ft 487 kts 87°
2026-05-04 17:46 50.84437 -109.35866 35083 ft 488 kts 87°
2026-05-04 17:46 50.83906 -109.25133 35079 ft 489 kts 88°
2026-05-04 17:47 50.83368 -109.14463 35088 ft 489 kts 88°
2026-05-04 17:47 50.83094 -109.09093 35214 ft 489 kts 88°
2026-05-04 17:47 50.82818 -109.03723 35156 ft 490 kts 88°
2026-05-04 17:48 50.82255 -108.92926 35076 ft 492 kts 88°
2026-05-04 17:48 50.81685 -108.82218 35067 ft 490 kts 88°
2026-05-04 17:49 50.81104 -108.71500 35065 ft 487 kts 88°
2026-05-04 17:49 50.80517 -108.60847 35066 ft 485 kts 89°
2026-05-04 17:50 50.79927 -108.50303 35063 ft 482 kts 89°
2026-05-04 17:50 50.79327 -108.39732 35076 ft 481 kts 89°
2026-05-04 17:51 50.78723 -108.29250 35072 ft 481 kts 89°
2026-05-04 17:51 50.78106 -108.18715 35062 ft 481 kts 89°
2026-05-04 17:52 50.77479 -108.08173 35065 ft 481 kts 89°
2026-05-04 17:52 50.76845 -107.97692 35062 ft 482 kts 90°
2026-05-04 17:53 50.76197 -107.87131 35062 ft 483 kts 90°
2026-05-04 17:53 50.75538 -107.76556 35057 ft 484 kts 90°
2026-05-04 17:54 50.74872 -107.66014 35058 ft 485 kts 90°
2026-05-04 17:54 50.74191 -107.55411 35062 ft 485 kts 90°
2026-05-04 17:55 50.73500 -107.44800 35055 ft 486 kts 91°
2026-05-04 17:55 50.72799 -107.34182 35053 ft 485 kts 91°
2026-05-04 17:56 50.72094 -107.23653 35047 ft 485 kts 91°
2026-05-04 17:56 50.71374 -107.13049 35047 ft 484 kts 91°
2026-05-04 17:57 50.70650 -107.02532 35044 ft 484 kts 91°
2026-05-04 17:57 50.69913 -106.91952 35039 ft 483 kts 92°
2026-05-04 17:58 50.69172 -106.81467 35040 ft 482 kts 92°
2026-05-04 17:58 50.68419 -106.70948 35040 ft 482 kts 92°
2026-05-04 17:59 50.67662 -106.60502 35037 ft 481 kts 92°
2026-05-04 18:00 50.66505 -106.44776 35043 ft 480 kts 92°
2026-05-04 18:00 50.65725 -106.34345 35036 ft 480 kts 92°
2026-05-04 18:01 50.64932 -106.23875 35041 ft 480 kts 92°
2026-05-04 18:01 50.64135 -106.13468 35045 ft 481 kts 93°
2026-05-04 18:02 50.62913 -105.97743 35034 ft 481 kts 93°
2026-05-04 18:02 50.62085 -105.87257 35027 ft 482 kts 93°
2026-05-04 18:03 50.61253 -105.76843 35017 ft 482 kts 93°
2026-05-04 18:03 50.60405 -105.66332 35012 ft 482 kts 94°
2026-05-04 18:04 50.59552 -105.55892 35009 ft 483 kts 94°
2026-05-04 18:05 50.58395 -105.41912 35007 ft 483 kts 94°
2026-05-04 18:05 50.57513 -105.31401 35005 ft 484 kts 94°
2026-05-04 18:06 50.56173 -105.15635 34998 ft 484 kts 94°
2026-05-04 18:06 50.55273 -105.05195 34980 ft 484 kts 94°
2026-05-04 18:07 50.54357 -104.94683 34965 ft 484 kts 94°
2026-05-04 18:07 50.53437 -104.84236 34950 ft 484 kts 94°
2026-05-04 18:08 50.52505 -104.73756 34939 ft 484 kts 94°
2026-05-04 18:08 50.51560 -104.63248 34938 ft 484 kts 94°
2026-05-04 18:09 50.49651 -104.42341 34946 ft 485 kts 95°
2026-05-04 18:10 50.48677 -104.31839 34950 ft 485 kts 95°
2026-05-04 18:10 50.47695 -104.21354 34956 ft 485 kts 95°
2026-05-04 18:11 50.46710 -104.10936 34953 ft 485 kts 95°
2026-05-04 18:11 50.45707 -104.00441 34950 ft 485 kts 95°
2026-05-04 18:12 50.44700 -103.90001 34945 ft 486 kts 95°
2026-05-04 18:12 50.43676 -103.79487 34943 ft 486 kts 95°
2026-05-04 18:13 50.42649 -103.69041 34943 ft 486 kts 95°
2026-05-04 18:14 50.41082 -103.53294 34928 ft 487 kts 95°
2026-05-04 18:14 50.40030 -103.42847 34921 ft 487 kts 96°
2026-05-04 18:15 50.37886 -103.21854 34915 ft 488 kts 96°
2026-05-04 18:16 50.36801 -103.11371 34915 ft 488 kts 96°
2026-05-04 18:16 50.35701 -103.00837 34908 ft 489 kts 96°
2026-05-04 18:17 50.34040 -102.85123 34900 ft 489 kts 96°
2026-05-04 18:18 50.32352 -102.69361 34895 ft 489 kts 96°
2026-05-04 18:18 50.31213 -102.58843 34888 ft 490 kts 96°
2026-05-04 18:19 50.29492 -102.43121 34883 ft 490 kts 97°
2026-05-04 18:19 50.28327 -102.32592 34879 ft 490 kts 97°
2026-05-04 18:20 50.27153 -102.22071 34872 ft 490 kts 97°
2026-05-04 18:20 50.25976 -102.11622 34871 ft 491 kts 97°
2026-05-04 18:21 50.24782 -102.01106 34865 ft 491 kts 97°
2026-05-04 18:21 50.23584 -101.90639 34862 ft 491 kts 97°
2026-05-04 18:22 50.22372 -101.80135 34856 ft 491 kts 97°
2026-05-04 18:22 50.21145 -101.69599 34855 ft 492 kts 97°
2026-05-04 18:23 50.19917 -101.59137 34847 ft 492 kts 97°
2026-05-04 18:23 50.18672 -101.48611 34845 ft 492 kts 97°
2026-05-04 18:24 50.17424 -101.38149 34841 ft 493 kts 98°
2026-05-04 18:24 50.16159 -101.27637 34832 ft 493 kts 98°
2026-05-04 18:25 50.14882 -101.17097 34830 ft 493 kts 98°
2026-05-04 18:25 50.13605 -101.06648 34825 ft 493 kts 98°
2026-05-04 18:26 50.12306 -100.96103 34819 ft 494 kts 98°
2026-05-04 18:26 50.11011 -100.85666 34819 ft 494 kts 98°
2026-05-04 18:27 50.09696 -100.75153 34810 ft 494 kts 98°
2026-05-04 18:27 50.08370 -100.64635 34808 ft 494 kts 98°
2026-05-04 18:28 50.07041 -100.54171 34808 ft 494 kts 98°
2026-05-04 18:28 50.05700 -100.43696 34797 ft 495 kts 99°
2026-05-04 18:29 50.04350 -100.33229 34784 ft 495 kts 99°
2026-05-04 18:29 50.02985 -100.22716 34769 ft 495 kts 99°
2026-05-04 18:30 50.00926 -100.07005 34758 ft 496 kts 99°
2026-05-04 18:31 49.99551 -99.96482 34752 ft 496 kts 98°
2026-05-04 18:31 49.98319 -99.85980 34746 ft 495 kts 98°
2026-05-04 18:32 49.97128 -99.75484 34752 ft 495 kts 98°
2026-05-04 18:32 49.95907 -99.64931 34768 ft 496 kts 98°
2026-05-04 18:33 49.94659 -99.54377 34764 ft 496 kts 98°
2026-05-04 18:33 49.93406 -99.43905 34771 ft 496 kts 98°
2026-05-04 18:34 49.92139 -99.33410 34770 ft 496 kts 98°
2026-05-04 18:34 49.90855 -99.22853 34776 ft 496 kts 99°
2026-05-04 18:35 49.89568 -99.12344 34765 ft 495 kts 99°
2026-05-04 18:35 49.88278 -99.01896 34770 ft 495 kts 99°
2026-05-04 18:36 49.86970 -98.91388 34767 ft 495 kts 99°
2026-05-04 18:36 49.85660 -98.80939 34764 ft 495 kts 99°
2026-05-04 18:37 49.84333 -98.70439 34766 ft 495 kts 99°
2026-05-04 18:37 49.83009 -98.60040 34762 ft 494 kts 100°
2026-05-04 18:38 49.81664 -98.49560 34761 ft 494 kts 100°
2026-05-04 18:38 49.80319 -98.39159 34762 ft 494 kts 100°
2026-05-04 18:39 49.78958 -98.28708 34757 ft 495 kts 100°
2026-05-04 18:39 49.77595 -98.18323 34760 ft 495 kts 100°
2026-05-04 18:40 49.76211 -98.07847 34754 ft 495 kts 101°
2026-05-04 18:40 49.74821 -97.97411 34748 ft 495 kts 101°
2026-05-04 18:41 49.73426 -97.87015 34737 ft 496 kts 101°
2026-05-04 18:41 49.72016 -97.76577 34723 ft 496 kts 101°
2026-05-04 18:42 49.70606 -97.66220 34719 ft 496 kts 101°
2026-05-04 18:42 49.69170 -97.55743 34708 ft 496 kts 101°
2026-05-04 18:43 49.67730 -97.45308 34703 ft 497 kts 101°
2026-05-04 18:43 49.66289 -97.34945 34703 ft 497 kts 101°
2026-05-04 18:44 49.64824 -97.24482 34696 ft 497 kts 102°
2026-05-04 18:44 49.63360 -97.14098 34695 ft 497 kts 102°
2026-05-04 18:45 49.61880 -97.03675 34689 ft 497 kts 102°
2026-05-04 18:45 49.60399 -96.93319 34682 ft 497 kts 102°
2026-05-04 18:46 49.58902 -96.82920 34681 ft 496 kts 102°
2026-05-04 18:46 49.57395 -96.72521 34675 ft 496 kts 102°
2026-05-04 18:47 49.55886 -96.62177 34674 ft 496 kts 102°
2026-05-04 18:47 49.54360 -96.51786 34670 ft 496 kts 102°
2026-05-04 18:48 49.52837 -96.41486 34668 ft 496 kts 103°
2026-05-04 18:48 49.51295 -96.31130 34663 ft 496 kts 103°
2026-05-04 18:49 49.49743 -96.20773 34666 ft 496 kts 103°
2026-05-04 18:49 49.48192 -96.10487 34657 ft 496 kts 103°
2026-05-04 18:50 49.46625 -96.00165 34655 ft 495 kts 103°
2026-05-04 18:50 49.45047 -95.89841 34654 ft 495 kts 103°
2026-05-04 18:51 49.43729 -95.81263 34654 ft 495 kts 103°
2026-05-04 18:51 49.42144 -95.71011 34650 ft 496 kts 103°
2026-05-04 18:52 49.40538 -95.60693 34642 ft 496 kts 104°
2026-05-04 18:52 49.38924 -95.50385 34640 ft 496 kts 104°
2026-05-04 18:53 49.37312 -95.40152 34638 ft 496 kts 104°
2026-05-04 18:53 49.35677 -95.29843 34633 ft 496 kts 104°
2026-05-04 18:54 49.34041 -95.19589 34620 ft 496 kts 104°
2026-05-04 18:54 49.32387 -95.09290 34617 ft 496 kts 104°
2026-05-04 18:55 49.30735 -94.99062 34609 ft 496 kts 104°
2026-05-04 18:55 49.28238 -94.83722 34601 ft 496 kts 104°
2026-05-04 18:56 49.26555 -94.73463 34588 ft 495 kts 105°
2026-05-04 18:56 49.24866 -94.63228 34579 ft 495 kts 105°
2026-05-04 18:57 49.23172 -94.53025 34568 ft 495 kts 105°
2026-05-04 18:57 49.21477 -94.42874 34556 ft 495 kts 105°
2026-05-04 18:58 49.19760 -94.32656 34551 ft 495 kts 105°
2026-05-04 18:58 49.18048 -94.22527 34545 ft 495 kts 105°
2026-05-04 18:59 49.16315 -94.12332 34532 ft 495 kts 105°
2026-05-04 18:59 49.14574 -94.02150 34525 ft 495 kts 105°
2026-05-04 19:00 49.12830 -93.92011 34513 ft 495 kts 106°
2026-05-04 19:00 49.11068 -93.81828 34507 ft 496 kts 106°
2026-05-04 19:01 49.09297 -93.71649 34511 ft 496 kts 106°
2026-05-04 19:01 49.07524 -93.61518 34498 ft 497 kts 106°
2026-05-04 19:02 49.05731 -93.51328 34496 ft 497 kts 106°
2026-05-04 19:02 49.03926 -93.41132 34487 ft 498 kts 106°
2026-05-04 19:03 49.02122 -93.30996 34493 ft 498 kts 107°
2026-05-04 19:03 49.00294 -93.20786 34489 ft 498 kts 107°
2026-05-04 19:04 48.98468 -93.10648 34491 ft 499 kts 107°
2026-05-04 19:04 48.96623 -93.00457 34493 ft 499 kts 107°
2026-05-04 19:05 48.94778 -92.90320 34491 ft 499 kts 107°
2026-05-04 19:05 48.92914 -92.80142 34489 ft 499 kts 107°
2026-05-04 19:06 48.91040 -92.69962 34488 ft 499 kts 107°
2026-05-04 19:06 48.89167 -92.59845 34484 ft 499 kts 107°
2026-05-04 19:07 48.87272 -92.49661 34472 ft 499 kts 107°
2026-05-04 19:07 48.85372 -92.39510 34464 ft 499 kts 108°
2026-05-04 19:08 48.83473 -92.29414 34465 ft 499 kts 108°
2026-05-04 19:08 48.81552 -92.19261 34460 ft 499 kts 108°
2026-05-04 19:09 48.79641 -92.09216 34452 ft 499 kts 108°
2026-05-04 19:09 48.77700 -91.99064 34447 ft 499 kts 108°
2026-05-04 19:10 48.75757 -91.88959 34450 ft 499 kts 108°
2026-05-04 19:10 48.73818 -91.78926 34430 ft 498 kts 108°
2026-05-04 19:11 48.71856 -91.68825 34426 ft 498 kts 108°
2026-05-04 19:11 48.69888 -91.58752 34429 ft 498 kts 108°
2026-05-04 19:12 48.66933 -91.43721 34420 ft 498 kts 109°
2026-05-04 19:13 48.64948 -91.33686 34412 ft 498 kts 109°
2026-05-04 19:13 48.62950 -91.23642 34408 ft 498 kts 109°
2026-05-04 19:14 48.60957 -91.13675 34401 ft 498 kts 109°
2026-05-04 19:14 48.58942 -91.03646 34402 ft 498 kts 109°
2026-05-04 19:15 48.56918 -90.93624 34397 ft 498 kts 109°
2026-05-04 19:15 48.54897 -90.83670 34393 ft 498 kts 109°
2026-05-04 19:16 48.52853 -90.73650 34395 ft 498 kts 109°
2026-05-04 19:16 48.50816 -90.63720 34390 ft 498 kts 109°
2026-05-04 19:17 48.48752 -90.53705 34383 ft 498 kts 110°
2026-05-04 19:17 48.46699 -90.43788 34382 ft 498 kts 110°
2026-05-04 19:18 48.44619 -90.33799 34378 ft 499 kts 110°
2026-05-04 19:18 48.42528 -90.23800 34376 ft 499 kts 110°
2026-05-04 19:19 48.40446 -90.13896 34368 ft 500 kts 110°
2026-05-04 19:19 48.38335 -90.03902 34368 ft 500 kts 110°
2026-05-04 19:20 48.36232 -89.93995 34361 ft 500 kts 110°
2026-05-04 19:20 48.34104 -89.84019 34363 ft 500 kts 110°
2026-05-04 19:21 48.31975 -89.74086 34360 ft 501 kts 110°
2026-05-04 19:21 48.29826 -89.64112 34362 ft 501 kts 110°
2026-05-04 19:22 48.27682 -89.54197 34355 ft 501 kts 110°
2026-05-04 19:22 48.25520 -89.44262 34359 ft 500 kts 111°
2026-05-04 19:23 48.22952 -89.34574 34355 ft 498 kts 116°
2026-05-04 19:23 48.20185 -89.25118 34352 ft 497 kts 117°
2026-05-04 19:24 48.17395 -89.15604 34349 ft 497 kts 117°
2026-05-04 19:24 48.14638 -89.06085 34344 ft 497 kts 116°
2026-05-04 19:25 48.11917 -88.96653 34343 ft 496 kts 116°
2026-05-04 19:25 48.09169 -88.87151 34345 ft 496 kts 117°
2026-05-04 19:26 48.06415 -88.77676 34347 ft 496 kts 117°
2026-05-04 19:26 48.03670 -88.68270 34351 ft 497 kts 117°
2026-05-04 19:27 48.00892 -88.58793 34350 ft 497 kts 117°
2026-05-04 19:27 47.98107 -88.49325 34358 ft 497 kts 117°
2026-05-04 19:28 47.95335 -88.39939 34361 ft 497 kts 117°
2026-05-04 19:28 47.92529 -88.30477 34364 ft 497 kts 117°
2026-05-04 19:29 47.89736 -88.21091 34367 ft 497 kts 117°
2026-05-04 19:29 47.86920 -88.11663 34374 ft 498 kts 118°
2026-05-04 19:30 47.84089 -88.02226 34377 ft 498 kts 118°
2026-05-04 19:30 47.81270 -87.92860 34382 ft 498 kts 118°
2026-05-04 19:31 47.78420 -87.83429 34372 ft 498 kts 118°
2026-05-04 19:31 47.75580 -87.74068 34376 ft 499 kts 118°
2026-05-04 19:32 47.72712 -87.64647 34376 ft 499 kts 118°
2026-05-04 19:32 47.69856 -87.55304 34377 ft 500 kts 118°
2026-05-04 19:33 47.66972 -87.45903 34380 ft 500 kts 118°
2026-05-04 19:33 47.64080 -87.36511 34384 ft 500 kts 118°
2026-05-04 19:34 47.61172 -87.27104 34383 ft 501 kts 118°
2026-05-04 19:34 47.58271 -87.17754 34389 ft 501 kts 119°
2026-05-04 19:35 47.55346 -87.08362 34393 ft 501 kts 119°
2026-05-04 19:35 47.52415 -86.98985 34398 ft 501 kts 119°
2026-05-04 19:36 47.49489 -86.89657 34402 ft 502 kts 119°
2026-05-04 19:36 47.46542 -86.80299 34406 ft 502 kts 119°
2026-05-04 19:37 47.43577 -86.70918 34410 ft 502 kts 120°
2026-05-04 19:37 47.40624 -86.61611 34411 ft 503 kts 120°
2026-05-04 19:38 47.37641 -86.52242 34417 ft 503 kts 120°
2026-05-04 19:38 47.34668 -86.42940 34416 ft 504 kts 120°
2026-05-04 19:39 47.31662 -86.33568 34421 ft 504 kts 120°
2026-05-04 19:39 47.28673 -86.24284 34419 ft 504 kts 120°
2026-05-04 19:40 47.26163 -86.16511 34425 ft 504 kts 120°
2026-05-04 19:40 47.23135 -86.07170 34422 ft 505 kts 121°
2026-05-04 19:41 47.20104 -85.97852 34429 ft 505 kts 121°
2026-05-04 19:41 47.17077 -85.88580 34428 ft 505 kts 121°
2026-05-04 19:42 47.14020 -85.79249 34428 ft 506 kts 121°
2026-05-04 19:42 47.10977 -85.69995 34423 ft 506 kts 121°
2026-05-04 19:43 47.07902 -85.60677 34429 ft 506 kts 121°
2026-05-04 19:43 47.04822 -85.51380 34426 ft 506 kts 121°
2026-05-04 19:44 47.01752 -85.42144 34428 ft 507 kts 122°
2026-05-04 19:44 46.98649 -85.32842 34430 ft 507 kts 122°
2026-05-04 19:45 46.95541 -85.23557 34430 ft 507 kts 122°
2026-05-04 19:45 46.92442 -85.14335 34432 ft 508 kts 122°
2026-05-04 19:46 46.89310 -85.05047 34430 ft 508 kts 122°
2026-05-04 19:46 46.86174 -84.95777 34440 ft 508 kts 122°
2026-05-04 19:47 46.83048 -84.86573 34428 ft 509 kts 123°
2026-05-04 19:47 46.79888 -84.77300 34446 ft 509 kts 123°
2026-05-04 19:48 46.76735 -84.68082 34434 ft 510 kts 123°
2026-05-04 19:48 46.73552 -84.58806 34448 ft 510 kts 123°
2026-05-04 19:49 46.70362 -84.49544 34448 ft 511 kts 123°
2026-05-04 19:49 46.67162 -84.40284 34452 ft 511 kts 123°
2026-05-04 19:50 46.63968 -84.31074 34451 ft 512 kts 123°
2026-05-04 19:50 46.60738 -84.21796 34445 ft 513 kts 123°
2026-05-04 19:51 46.57516 -84.12568 34446 ft 513 kts 123°
2026-05-04 19:51 46.54286 -84.03355 34441 ft 514 kts 123°
2026-05-04 19:52 46.51025 -83.94081 34445 ft 515 kts 123°
2026-05-04 19:52 46.47771 -83.84861 34426 ft 515 kts 123°
2026-05-04 19:53 46.44490 -83.75592 34440 ft 515 kts 123°
2026-05-04 19:53 46.41222 -83.66391 34440 ft 516 kts 123°
2026-05-04 19:54 46.37545 -83.57528 34441 ft 509 kts 133°
2026-05-04 19:54 46.33369 -83.49311 34433 ft 509 kts 134°
2026-05-04 19:55 46.29154 -83.41035 34416 ft 510 kts 133°
2026-05-04 19:55 46.25018 -83.32686 34420 ft 509 kts 133°
2026-05-04 19:56 46.20931 -83.24380 34423 ft 508 kts 133°
2026-05-04 19:56 46.16826 -83.16078 34424 ft 506 kts 133°
2026-05-04 19:57 46.12756 -83.07881 34435 ft 505 kts 133°
2026-05-04 19:57 46.08660 -82.99662 34439 ft 504 kts 133°
2026-05-04 19:58 46.04558 -82.91465 34447 ft 503 kts 133°
2026-05-04 19:58 46.00467 -82.83309 34450 ft 502 kts 132°
2026-05-04 19:59 45.96402 -82.75224 34444 ft 502 kts 132°
2026-05-04 19:59 45.92305 -82.67100 34438 ft 502 kts 132°
2026-05-04 20:00 45.88194 -82.58968 34437 ft 502 kts 132°
2026-05-04 20:00 45.84086 -82.50864 34433 ft 503 kts 132°
2026-05-04 20:01 45.79975 -82.42789 34452 ft 503 kts 132°
2026-05-04 20:01 45.75836 -82.34679 34471 ft 504 kts 132°
2026-05-04 20:02 45.71681 -82.26559 34492 ft 505 kts 132°
2026-05-04 20:02 45.67518 -82.18442 34519 ft 506 kts 132°
2026-05-04 20:03 45.63373 -82.10380 34530 ft 506 kts 132°
2026-05-04 20:03 45.58903 -82.02732 34547 ft 495 kts 143°
2026-05-04 20:04 45.53853 -81.96138 34535 ft 493 kts 145°
2026-05-04 20:04 45.48752 -81.89575 34536 ft 494 kts 144°
2026-05-04 20:05 45.43704 -81.82897 34542 ft 494 kts 143°
2026-05-04 20:05 45.38682 -81.76193 34547 ft 494 kts 143°
2026-05-04 20:06 45.33679 -81.69534 34542 ft 494 kts 143°
2026-05-04 20:06 45.28642 -81.62857 34543 ft 494 kts 143°
2026-05-04 20:07 45.23623 -81.56230 34091 ft 500 kts 143°
2026-05-04 20:07 45.21071 -81.52870 33494 ft 500 kts 143°
2026-05-04 20:07 45.18512 -81.49502 32784 ft 500 kts 143°
2026-05-04 20:07 45.15964 -81.46149 32229 ft 497 kts 143°
2026-05-04 20:08 45.13444 -81.42833 31778 ft 492 kts 143°
2026-05-04 20:08 45.10946 -81.39550 31302 ft 487 kts 143°
2026-05-04 20:08 45.08499 -81.36340 30857 ft 483 kts 143°
2026-05-04 20:08 45.06034 -81.33112 30411 ft 479 kts 143°
2026-05-04 20:09 45.03599 -81.29928 29973 ft 475 kts 143°
2026-05-04 20:09 45.01180 -81.26769 29520 ft 471 kts 143°
2026-05-04 20:09 44.98778 -81.23637 29014 ft 467 kts 143°
2026-05-04 20:09 44.96402 -81.20541 28545 ft 462 kts 143°
2026-05-04 20:10 44.94080 -81.17520 28101 ft 457 kts 143°
2026-05-04 20:10 44.91753 -81.14495 27634 ft 452 kts 143°
2026-05-04 20:10 44.89445 -81.11499 27195 ft 448 kts 143°
2026-05-04 20:10 44.87156 -81.08532 26733 ft 444 kts 143°
2026-05-04 20:11 44.84890 -81.05598 26289 ft 441 kts 143°
2026-05-04 20:11 44.82634 -81.02681 25853 ft 438 kts 143°
2026-05-04 20:11 44.80425 -80.99825 25423 ft 434 kts 143°
2026-05-04 20:11 44.78198 -80.96951 24996 ft 431 kts 143°
2026-05-04 20:12 44.75991 -80.94106 24567 ft 429 kts 143°
2026-05-04 20:12 44.73790 -80.91271 24129 ft 427 kts 143°
2026-05-04 20:12 44.71598 -80.88451 23707 ft 424 kts 143°
2026-05-04 20:12 44.69422 -80.85654 23282 ft 422 kts 143°
2026-05-04 20:13 44.67283 -80.82908 22789 ft 421 kts 143°
2026-05-04 20:13 44.65125 -80.80138 22326 ft 418 kts 143°
2026-05-04 20:13 44.62977 -80.77384 21889 ft 415 kts 143°
2026-05-04 20:13 44.60853 -80.74664 21471 ft 411 kts 143°
2026-05-04 20:14 44.58769 -80.71999 21163 ft 406 kts 143°
2026-05-04 20:14 44.56692 -80.69346 20874 ft 401 kts 144°
2026-05-04 20:14 44.54627 -80.66712 20502 ft 398 kts 144°
2026-05-04 20:14 44.52580 -80.64103 20099 ft 396 kts 143°
2026-05-04 20:15 44.50547 -80.61517 19683 ft 394 kts 143°
2026-05-04 20:15 44.48542 -80.58968 19285 ft 392 kts 143°
2026-05-04 20:15 44.46526 -80.56407 18870 ft 390 kts 143°
2026-05-04 20:15 44.44518 -80.53858 18467 ft 388 kts 143°
2026-05-04 20:16 44.42515 -80.51317 18051 ft 387 kts 143°
2026-05-04 20:16 44.40518 -80.48786 17597 ft 386 kts 143°
2026-05-04 20:16 44.38556 -80.46302 17154 ft 384 kts 143°
2026-05-04 20:16 44.36584 -80.43807 16836 ft 378 kts 143°
2026-05-04 20:17 44.34646 -80.41354 16574 ft 373 kts 143°
2026-05-04 20:17 44.32731 -80.38935 16281 ft 368 kts 143°
2026-05-04 20:17 44.30856 -80.36570 15918 ft 365 kts 143°
2026-05-04 20:17 44.28971 -80.34195 15532 ft 363 kts 143°
2026-05-04 20:18 44.27099 -80.31839 15142 ft 362 kts 143°
2026-05-04 20:18 44.25225 -80.29483 14763 ft 360 kts 143°
2026-05-04 20:18 44.23367 -80.27148 14381 ft 358 kts 143°
2026-05-04 20:18 44.21546 -80.24860 14007 ft 357 kts 143°
2026-05-04 20:19 44.19696 -80.22539 13624 ft 355 kts 143°
2026-05-04 20:19 44.17885 -80.20268 13226 ft 353 kts 143°
2026-05-04 20:19 44.16116 -80.18048 12915 ft 348 kts 143°
2026-05-04 20:19 44.14341 -80.15821 12540 ft 346 kts 143°
2026-05-04 20:20 44.12555 -80.13583 12163 ft 343 kts 143°
2026-05-04 20:20 44.10783 -80.11363 11781 ft 342 kts 143°
2026-05-04 20:20 44.09016 -80.09152 11406 ft 339 kts 144°
2026-05-04 20:20 44.07263 -80.06960 11024 ft 338 kts 144°
2026-05-04 20:21 44.05557 -80.04826 10876 ft 329 kts 144°
2026-05-04 20:21 44.03873 -80.02719 10716 ft 320 kts 144°
2026-05-04 20:21 44.00567 -79.98837 10283 ft 305 kts 153°
2026-05-04 20:22 43.98804 -79.97269 10145 ft 296 kts 155°
2026-05-04 20:22 43.97059 -79.95790 9986 ft 288 kts 156°
2026-05-04 20:22 43.95352 -79.94338 9712 ft 287 kts 155°
2026-05-04 20:22 43.93681 -79.92898 9438 ft 285 kts 155°
2026-05-04 20:23 43.92006 -79.91439 9127 ft 283 kts 155°
2026-05-04 20:23 43.90348 -79.89984 8850 ft 281 kts 155°
2026-05-04 20:23 43.88716 -79.88544 8737 ft 273 kts 154°
2026-05-04 20:23 43.87134 -79.87145 8584 ft 266 kts 155°
2026-05-04 20:24 43.85594 -79.85784 8481 ft 258 kts 155°
2026-05-04 20:24 43.84134 -79.84417 8297 ft 258 kts 148°
2026-05-04 20:24 43.82808 -79.82721 8041 ft 260 kts 142°
2026-05-04 20:24 43.81520 -79.80956 7778 ft 260 kts 142°
2026-05-04 20:25 43.80227 -79.79210 7542 ft 260 kts 143°
2026-05-04 20:25 43.78923 -79.77476 7282 ft 260 kts 143°
2026-05-04 20:25 43.77616 -79.75749 7001 ft 259 kts 143°
2026-05-04 20:25 43.76576 -79.73701 6714 ft 273 kts 114°
2026-05-04 20:26 43.76387 -79.71072 6466 ft 281 kts 79°
2026-05-04 20:26 43.77240 -79.68669 6216 ft 278 kts 46°
2026-05-04 20:26 43.78561 -79.66740 6020 ft 276 kts 42°
2026-05-04 20:26 43.79910 -79.64854 5849 ft 273 kts 43°
2026-05-04 20:27 43.81226 -79.62992 5701 ft 267 kts 43°
2026-05-04 20:27 43.82491 -79.61180 5600 ft 262 kts 43°
2026-05-04 20:27 43.83746 -79.59368 5469 ft 258 kts 43°
2026-05-04 20:27 43.84980 -79.57573 5365 ft 257 kts 44°
2026-05-04 20:28 43.86217 -79.55773 5241 ft 256 kts 44°
2026-05-04 20:28 43.87441 -79.53988 5135 ft 255 kts 44°
2026-05-04 20:28 43.88644 -79.52226 5020 ft 254 kts 45°
2026-05-04 20:28 43.89870 -79.50432 4925 ft 257 kts 45°
2026-05-04 20:29 43.91111 -79.48624 4788 ft 259 kts 45°
2026-05-04 20:29 43.91933 -79.47425 4705 ft 258 kts 45°
2026-05-04 20:29 43.93014 -79.45432 4396 ft 264 kts 71°
2026-05-04 20:29 43.92933 -79.42266 4162 ft 240 kts 124°
2026-05-04 20:30 43.91951 -79.40492 4070 ft 227 kts 149°
2026-05-04 20:30 43.91091 -79.39719 4039 ft 218 kts 164°
2026-05-04 20:30 43.89656 -79.39255 4004 ft 207 kts 186°
2026-05-04 20:30 43.88273 -79.39517 4006 ft 196 kts 203°
2026-05-04 20:31 43.87086 -79.40376 4005 ft 193 kts 218°
2026-05-04 20:31 43.85996 -79.41511 4008 ft 197 kts 220°
2026-05-04 20:31 43.84910 -79.42674 3999 ft 197 kts 220°
2026-05-04 20:31 43.83821 -79.43839 4009 ft 197 kts 220°
2026-05-04 20:32 43.82747 -79.44986 4000 ft 198 kts 220°
2026-05-04 20:32 43.81652 -79.46147 3860 ft 198 kts 220°
2026-05-04 20:32 43.80615 -79.47325 3754 ft 187 kts 223°
2026-05-04 20:32 43.79683 -79.48578 3491 ft 184 kts 226°
2026-05-04 20:33 43.78811 -79.49826 3252 ft 180 kts 226°
2026-05-04 20:33 43.77966 -79.51056 3014 ft 171 kts 226°
2026-05-04 20:33 43.77170 -79.52216 2790 ft 162 kts 226°
2026-05-04 20:33 43.76415 -79.53315 2587 ft 155 kts 226°
2026-05-04 20:34 43.75678 -79.54386 2387 ft 151 kts 226°
2026-05-04 20:34 43.74955 -79.55436 2175 ft 153 kts 225°
2026-05-04 20:34 43.74216 -79.56511 1984 ft 156 kts 225°
2026-05-04 20:34 43.73494 -79.57564 1806 ft 142 kts 225°
2026-05-04 20:35 43.72837 -79.58518 1588 ft 131 kts 224°
2026-05-04 20:35 43.72215 -79.59424 1416 ft 132 kts 225°
2026-05-04 20:35 43.71577 -79.60353 1250 ft 134 kts 225°
2026-05-04 20:35 43.70931 -79.61304 1126 ft 136 kts 226°
2026-05-04 20:36 43.70270 -79.62294 897 ft 142 kts 224°
2026-05-04 20:36 43.69592 -79.63240 669 ft 138 kts 225°
2026-05-04 20:36 43.68951 -79.64161 568 ft 123 kts 226°
2026-05-04 20:36 43.68446 -79.64895 569 ft 84 kts 226°
2026-05-04 20:37 43.68172 -79.65296 564 ft 36 kts 227°
2026-05-04 20:37 43.68064 -79.65420 564 ft 19 kts 202°
2026-05-04 20:37 43.67939 -79.65476 564 ft 19 kts 198°
2026-05-04 20:37 43.67886 -79.65488 567 ft 5 kts 172°
2026-05-04 20:38 43.67852 -79.65470 564 ft 6 kts 132°
2026-05-04 20:38 43.67834 -79.65418 566 ft 7 kts 92°
2026-05-04 20:38 43.67860 -79.65360 568 ft 8 kts 45°
2026-05-04 20:38 43.67907 -79.65288 566 ft 12 kts 49°
2026-05-04 20:39 43.67974 -79.65191 563 ft 16 kts 46°
2026-05-04 20:39 43.68065 -79.65060 571 ft 21 kts 46°
2026-05-04 20:39 43.68163 -79.64919 567 ft 18 kts 46°
2026-05-04 20:39 43.68249 -79.64794 569 ft 18 kts 46°
2026-05-04 20:40 43.68336 -79.64667 570 ft 20 kts 46°
2026-05-04 20:40 43.68439 -79.64519 567 ft 22 kts 46°
2026-05-04 20:40 43.68549 -79.64358 568 ft 24 kts 47°
2026-05-04 20:40 43.68657 -79.64203 567 ft 14 kts 46°
2026-05-04 20:41 43.68673 -79.64073 565 ft 15 kts 93°
2026-05-04 20:41 43.68672 -79.63924 567 ft 16 kts 90°
2026-05-04 20:41 43.68634 -79.63793 569 ft 16 kts 133°
2026-05-04 20:41 43.68548 -79.63680 566 ft 19 kts 137°
2026-05-04 20:42 43.68449 -79.63551 565 ft 20 kts 137°
2026-05-04 20:42 43.68343 -79.63413 563 ft 22 kts 136°
2026-05-04 20:42 43.68234 -79.63269 564 ft 22 kts 137°
2026-05-04 20:42 43.68171 -79.63157 566 ft 14 kts 94°
2026-05-04 20:43 43.68226 -79.63052 568 ft 14 kts 47°
2026-05-04 20:43 43.68301 -79.62941 569 ft 17 kts 46°
2026-05-04 20:43 43.68393 -79.62807 561 ft 23 kts 46°
2026-05-04 20:43 43.68487 -79.62672 558 ft 8 kts 46°
2026-05-04 20:44 43.68486 -79.62601 560 ft 9 kts 136°
2026-05-04 20:44 43.68438 -79.62534 556 ft 11 kts 134°
2026-05-04 20:44 43.68380 -79.62457 556 ft 12 kts 137°
2026-05-04 20:44 43.68358 -79.62356 555 ft 13 kts 54°
2026-05-04 20:45 43.68419 -79.62267 555 ft 7 kts 46°
2026-05-04 20:45 43.68466 -79.62245 559 ft 8 kts 339°
2026-05-04 20:45 43.68505 -79.62292 555 ft 0 kts 315°